Location: Bergheim
(50.9593°N, 6.6400°E)
Time: 02:32:18
(UTC+01:00)

ISS - Pass Details

Date: 02 October 2020
Orbit: 417 x 420 km, 51.6° (Epoch: 25 October)

Event Time Altitude Azimuth Distance (km) Brightness Sun altitude
Rises 20:17:21 0° 285° (WNW) 2,370 2.1 -11.7°
Reaches altitude 10° 20:19:29 10° 281° (W) 1,505 0.6 -12.0°
Maximum altitude 20:22:47 55° 203° (SSW) 513 -3.3 -12.5°
Enters shadow 20:24:57 20° 130° (SE) 1,053 -2.2 -12.9°
